[[{"header":{"parameterUnit":"m.s-1","parameterCategory":1,"la1":30.2991,"la2":30.254,"lo1":-89.0895,"lo2":-89.0444,"dy":0.0017,"dx":0.0017,"nx":28,"ny":28,"refTime":"2024-03-14T03:00:00:Z","depth":0,"parameterNumber":2,"parameterNumberName":"U-component_of_WINDS"},"data":[0,0,0,0,0,0,0,0,0,0,0,0,0,0,0,0,0,0,0,0,0,0,0,0,0,0,0,0,0,0,0,0,0,0,0,0,0,0,0,0,0,0,0,0,0,0,0,0,0,0,0,0,0,0,0,0,0,0,-4.2479,-4.248,0,-4.2624,-4.2626,-4.2628,-4.2632,-4.2631,-4.2629,-4.2627,-4.2777,-4.2783,-4.2788,0,0,0,0,0,0,0,0,0,0,0,0,0,-4.2206,-4.2211,-4.2478,-4.248,-4.2482,-4.2624,-4.2626,-4.2628,-4.2633,-4.2631,-4.2628,-4.2626,-4.2776,-4.2782,-4.2789,0,0,0,0,0,0,0,0,0,0,0,0,0,-4.2336,-4.2213,-4.2478,-4.2502,-4.2505,-4.2624,-4.2626,-4.2629,-4.2633,-4.263,-4.2628,-4.2625,-4.2773,-4.2782,-4.279,-4.2895,0,0,-4.2816,-4.282,0,0,0,0,0,0,0,0,-4.2328,-4.2346,-4.2496,-4.25,-4.2504,-4.2607,-4.2585,-4.2718,-4.2634,-4.2585,-4.2627,-4.2624,-4.2723,-4.2736,-4.2769,-4.2903,-4.2909,-4.2817,-4.2822,-4.2825,-4.2828,0,0,0,0,0,0,0,-4.2319,-4.2339,-4.2536,-4.2498,-4.2503,-4.2506,-4.2521,-4.2611,-4.2667,-4.2589,-4.2589,-4.2606,-4.2725,-4.2761,-4.2772,-4.2911,-4.2816,-4.2824,-4.2829,-4.2832,-4.3141,-4.3144,0,0,0,0,0,0,-4.2306,-4.2332,-4.2532,-4.2541,-4.2408,-4.2513,-4.253,-4.2577,-4.2666,-4.2677,-4.2609,-4.2606,-4.2747,-4.2762,-4.2778,-4.2907,-4.2825,-4.2833,-4.2838,-4.3138,-4.3142,-4.3145,0,0,0,0,0,0,-4.23,-4.2323,-4.2526,-4.2437,-4.2463,-4.252,-4.2573,-4.2581,-4.2617,-4.2681,-4.2691,-4.2635,-4.2746,-4.2766,-4.2866,-4.2913,-4.2837,-4.2845,-4.3134,-4.3139,-4.3143,-4.3168,0,0,0,0,0,0,-4.2292,-4.2321,-4.2361,-4.2437,-4.2467,-4.2611,-4.2576,-4.2586,-4.2632,-4.263,-4.2708,-4.2719,-4.2745,-4.2854,-4.2875,-4.2923,-4.2851,-4.313,-4.3136,-4.3142,-4.3163,-4.3172,-4.3181,0,0,0,0,0,-4.2282,-4.2362,-4.2363,-4.2387,-4.2518,-4.2614,-4.2631,-4.266,-4.2635,-4.2676,-4.2718,-4.2716,-4.2905,-4.2864,-4.2888,-4.2939,-4.3127,-4.3135,-4.3141,-4.3159,-4.3171,-4.318,0,0,0,0,0,0,-4.2289,-4.2372,-4.2374,-4.2481,-4.2541,-4.2614,-4.2667,-4.2671,-4.2739,-4.2734,-4.2768,-4.2785,-4.2886,-4.2923,-4.2876,-4.3047,-4.3013,-4.3025,-4.3018,-4.303,-4.3039,-4.3027,-4.2858,0,0,0,0,0,-4.2303,-4.2373,-4.2443,-4.253,-4.256,-4.2609,-4.2651,-4.2669,-4.2731,-4.2757,-4.2805,-4.2867,-4.294,-4.2988,-4.3059,-4.3169,-4.3187,-4.3217,-4.3225,-4.3233,-4.3242,-4.3304,-4.3318,-4.3168,-4.3168,-4.3168,0,0,-4.2332,-4.2387,-4.2429,-4.2533,-4.2581,-4.2654,-4.2629,-4.2707,-4.2761,-4.2768,-4.2866,-4.2905,-4.2976,-4.3082,-4.3132,-4.3116,-4.3288,-4.3241,-4.3247,-4.3252,-4.3313,-4.3327,-4.334,-4.3173,-4.3172,-4.3171,0,0,-4.2423,-4.2471,-4.2549,-4.2599,-4.2672,-4.2704,-4.2723,-4.2798,-4.2823,-4.2922,-4.2929,-4.2996,-4.3121,-4.3171,-4.3214,-4.3327,-4.3328,-4.3349,-4.3395,-4.3455,-4.3467,-4.3478,-4.3518,-4.3532,-4.3359,-4.3359,-4.3359,0,-4.245,-4.2559,-4.2589,-4.2667,-4.2713,-4.2724,-4.2805,-4.2851,-4.2944,-4.2976,-4.2958,-4.3116,-4.3165,-4.3284,-4.3312,-4.3346,-4.3369,-4.3339,-4.3463,-4.3474,-4.3484,-4.3523,-4.3538,-4.3361,-4.3361,-4.3361,-4.336,0,-4.2589,-4.2665,-4.272,-4.2809,-4.2862,-4.2941,-4.2984,-4.3034,-4.3048,-4.3082,-4.3184,-4.3243,-4.3327,-4.3357,-4.3371,-4.3479,-4.3467,-4.3456,-4.3422,-4.35,-4.3537,-4.3552,-4.3364,-4.3363,-4.3363,-4.3362,0,0,-4.2684,-4.2792,-4.2811,-4.2853,-4.2936,-4.2995,-4.3076,-4.3158,-4.32,-4.3265,-4.3333,-4.3441,-4.3431,-4.3479,-4.35,-4.3553,-4.3639,-4.3536,-4.3538,-4.3552,-4.3762,-4.3769,-4.3785,-4.3642,-4.3645,-4.3647,-4.3756,0,-4.2783,-4.2925,-4.2956,-4.3079,-4.315,-4.3163,-4.3233,-4.3293,-4.3328,-4.3394,-4.3434,-4.3509,-4.3491,-4.352,-4.3574,-4.3617,-4.3681,-4.361,-4.3706,-4.3709,-4.3685,-4.3804,-4.3812,-4.3911,-4.377,-4.3773,-4.3775,0,-4.2916,-4.2984,-4.3114,-4.319,-4.3221,-4.3283,-4.3361,-4.3425,-4.3493,-4.3515,-4.357,-4.3586,-4.3671,-4.3635,-4.3754,-4.3704,-4.3746,-4.3774,-4.3778,-4.3787,-4.3745,-4.3815,-4.3944,-4.3958,-4.3798,-4.3796,-4.3794,0,-4.2972,-4.3097,-4.3191,-4.3226,-4.3316,-4.336,-4.34,-4.3466,-4.3514,-4.3583,-4.3615,-4.3693,-4.3736,-4.3797,-4.3834,-4.3804,-4.395,-4.3917,-4.3971,-4.397,-4.3999,-4.3996,-4.4134,-4.4028,-4.4028,-4.4028,-4.4027,0,-4.3078,-4.3157,-4.3217,-4.3275,-4.3364,-4.3401,-4.3488,-4.3528,-4.3587,-4.3654,-4.3671,-4.3733,-4.3778,-4.3847,-4.3877,-4.3971,-4.3991,-4.4011,-4.4018,-4.4009,-4.4006,-4.4035,-4.4029,-4.4032,-4.4031,-4.403,-4.4029,0,-4.3154,-4.3198,-4.3301,-4.3379,-4.3401,-4.3463,-4.353,-4.3588,-4.3625,-4.3709,-4.3731,-4.3789,-4.3871,-4.3914,-4.4017,-4.4037,-4.4143,-4.4146,-4.4119,-4.4122,-4.4173,-4.4167,-4.4333,-4.4357,-4.4236,-4.4237,-4.4238,0,-4.3218,-4.3279,-4.3364,-4.341,-4.3451,-4.3524,-4.3573,-4.3613,-4.3664,-4.3748,-4.3795,-4.3878,-4.3947,-4.4078,-4.413,-4.4209,-4.4214,-4.4267,-4.4226,-4.4215,-4.4214,-4.4209,-4.4216,-4.4273,-4.4274,-4.4275,-4.4276,0,-4.3327,-4.3346,-4.3416,-4.3495,-4.3553,-4.3617,-4.368,-4.3717,-4.3767,-4.3823,-4.3908,-4.3961,-4.4067,-4.415,-4.4234,-4.4276,-4.4285,-4.4289,-4.4306,-4.4296,-4.4278,-4.4288,-4.4138,-4.4284,-4.4284,-4.4283,-4.4283,-4.4282,-4.3398,-4.3453,-4.3522,-4.36,-4.3652,-4.3712,-4.3769,-4.3814,-4.3885,-4.3974,-4.3994,-4.4083,-4.4152,-4.4266,-4.4311,-4.4382,-4.4371,-4.4395,-4.4401,-4.4406,-4.4408,-4.4268,-4.4398,-4.4398,-4.4397,-4.4397,-4.4397,0,-4.3507,-4.3552,-4.3624,-4.3712,-4.3774,-4.3778,-4.3849,-4.3901,-4.3979,-4.4043,-4.411,-4.4208,-4.429,-4.4349,-4.4432,-4.4478,-4.4484,-4.4498,-4.4494,-4.4504,-4.4413,-4.439,-4.4492,-4.4492,-4.4492,-4.4492,-4.4491,-4.4491,-4.3571,-4.3664,-4.3692,-4.3813,-4.3858,-4.3946,-4.3986,-4.4041,-4.4092,-4.4201,-4.4268,-4.4307,-4.4369,-4.4457,-4.4532,-4.4548,-4.4577,-4.4591,-4.4607,-4.452,-4.451,-4.45,-4.4479,-4.4597,-4.4598,-4.4691,-4.4692,-4.4693]},{"header":{"parameterUnit":"m.s-1","parameterCategory":1,"la1":30.2991,"la2":30.254,"lo1":-89.0895,"lo2":-89.0444,"dy":0.0017,"dx":0.0017,"nx":28,"ny":28,"refTime":"2024-03-14T03:00:00:Z","depth":0,"parameterNumber":3,"parameterNumberName":"V-component_of_WINDS"},"data":[0,0,0,0,0,0,0,0,0,0,0,0,0,0,0,0,0,0,0,0,0,0,0,0,0,0,0,0,0,0,0,0,0,0,0,0,0,0,0,0,0,0,0,0,0,0,0,0,0,0,0,0,0,0,0,0,0,0,2.4845,2.4846,0,2.4909,2.491,2.491,2.4958,2.4959,2.4959,2.4959,2.5018,2.5019,2.502,0,0,0,0,0,0,0,0,0,0,0,0,0,2.476,2.4762,2.4845,2.4846,2.4847,2.4909,2.491,2.4911,2.4958,2.4959,2.4959,2.496,2.5018,2.5019,2.502,0,0,0,0,0,0,0,0,0,0,0,0,0,2.4808,2.4762,2.4845,2.4878,2.4882,2.4909,2.491,2.4911,2.4958,2.4959,2.4959,2.496,2.5017,2.5019,2.502,2.5018,0,0,2.5026,2.5026,0,0,0,0,0,0,0,0,2.4805,2.4811,2.4872,2.4876,2.488,2.4926,2.4902,2.4946,2.4958,2.4929,2.4959,2.496,2.4986,2.4991,2.5001,2.5021,2.5023,2.5026,2.5027,2.5028,2.5028,0,0,0,0,0,0,0,2.4802,2.4808,2.487,2.4873,2.4878,2.4888,2.4896,2.491,2.4953,2.4931,2.4935,2.4942,2.4989,2.4999,2.5003,2.5024,2.5026,2.5027,2.5028,2.5029,2.5049,2.5048,0,0,0,0,0,0,2.4794,2.4805,2.4868,2.4872,2.4844,2.4889,2.4898,2.4911,2.4953,2.496,2.4942,2.4944,2.4996,2.5001,2.5005,2.5008,2.5028,2.5029,2.503,2.5049,2.5048,2.5048,0,0,0,0,0,0,2.4792,2.4799,2.4865,2.484,2.4849,2.489,2.4904,2.4912,2.4922,2.4961,2.4968,2.4945,2.4997,2.5003,2.5016,2.501,2.503,2.5032,2.505,2.5049,2.5048,2.501,0,0,0,0,0,0,2.4789,2.4798,2.4798,2.484,2.485,2.4876,2.4904,2.4912,2.4926,2.493,2.4966,2.4972,2.4998,2.5013,2.5017,2.5013,2.5033,2.505,2.5049,2.5048,2.5012,2.5008,2.5005,0,0,0,0,0,2.4786,2.4782,2.4798,2.4805,2.4851,2.4875,2.4881,2.4913,2.4925,2.4926,2.4951,2.4971,2.501,2.5014,2.5019,2.5015,2.5051,2.505,2.5048,2.5014,2.5009,2.5005,0,0,0,0,0,0,2.4735,2.4788,2.4806,2.4815,2.4841,2.4884,2.4884,2.4906,2.4927,2.4929,2.4965,2.4973,2.4983,2.5,2.5003,2.5017,2.5033,2.5033,2.5005,2.5001,2.4997,2.4993,2.5034,0,0,0,0,0,2.4726,2.4743,2.4787,2.4791,2.4804,2.4842,2.4853,2.4876,2.4903,2.4913,2.4939,2.4963,2.4981,2.4992,2.501,2.5015,2.5025,2.5015,2.5012,2.5009,2.5008,2.5015,2.5012,2.5044,2.5044,2.5044,0,0,2.4705,2.4736,2.4744,2.4782,2.4805,2.4821,2.485,2.4865,2.4878,2.4915,2.493,2.495,2.4979,2.499,2.4995,2.5004,2.5002,2.5007,2.5004,2.5005,2.5013,2.501,2.5008,2.5043,2.5043,2.5044,0,0,2.4676,2.4701,2.4709,2.4732,2.4768,2.4794,2.4796,2.4836,2.4852,2.4869,2.4899,2.4913,2.4942,2.4963,2.4977,2.4962,2.4982,2.4966,2.4947,2.4954,2.4951,2.4949,2.4945,2.4943,2.4966,2.4965,2.4965,0,2.4645,2.4672,2.4709,2.4725,2.4741,2.478,2.4789,2.4809,2.4847,2.4857,2.4868,2.4909,2.493,2.4948,2.4945,2.4954,2.4958,2.4962,2.4949,2.4947,2.4946,2.4942,2.4941,2.4964,2.4964,2.4964,2.4964,0,2.4634,2.4653,2.4655,2.4695,2.4712,2.4723,2.4762,2.4775,2.4797,2.4822,2.484,2.4869,2.4895,2.4901,2.492,2.4922,2.4927,2.4942,2.496,2.494,2.4938,2.4937,2.4961,2.4961,2.4962,2.4962,0,0,2.4571,2.4637,2.4637,2.4658,2.4701,2.4716,2.473,2.4759,2.477,2.4796,2.4809,2.4836,2.4852,2.4868,2.4891,2.4897,2.4886,2.4913,2.4914,2.4908,2.4891,2.488,2.4877,2.49,2.49,2.49,2.4889,0,2.4551,2.4581,2.4617,2.4634,2.4653,2.4692,2.4704,2.4732,2.4757,2.4776,2.4802,2.4821,2.484,2.4851,2.4858,2.4885,2.4883,2.4887,2.4912,2.4912,2.4904,2.4876,2.4863,2.4852,2.4888,2.4888,2.4888,0,2.4529,2.4558,2.4578,2.4625,2.4634,2.4644,2.4677,2.4694,2.4727,2.4745,2.4766,2.4792,2.4809,2.4824,2.4849,2.4851,2.4863,2.4878,2.4879,2.4882,2.4899,2.488,2.4848,2.4847,2.4887,2.4887,2.4887,0,2.4484,2.4527,2.4546,2.4562,2.4616,2.4624,2.4646,2.468,2.4697,2.4724,2.4735,2.4763,2.4778,2.4798,2.4831,2.4839,2.4853,2.487,2.4868,2.4867,2.4868,2.4868,2.4839,2.4875,2.4875,2.4875,2.4875,0,2.4457,2.4468,2.4528,2.4539,2.4553,2.4595,2.4607,2.4633,2.4664,2.4681,2.4715,2.4729,2.4772,2.4792,2.4817,2.4835,2.4841,2.4855,2.4862,2.4853,2.4851,2.4861,2.4863,2.4875,2.4875,2.4875,2.4875,0,2.4409,2.4449,2.4473,2.4524,2.4537,2.4545,2.4589,2.4601,2.463,2.4651,2.4658,2.4701,2.4727,2.4762,2.4797,2.4815,2.4829,2.4839,2.4818,2.4823,2.4818,2.4819,2.4796,2.4796,2.483,2.483,2.483,0,2.439,2.44,2.4454,2.447,2.4492,2.4516,2.4535,2.4576,2.4594,2.4635,2.4643,2.4672,2.4697,2.4736,2.477,2.4797,2.4809,2.48,2.4813,2.4805,2.4811,2.481,2.4812,2.4796,2.4795,2.4795,2.4794,0,2.4351,2.4372,2.4399,2.4434,2.4457,2.4485,2.4515,2.4525,2.4573,2.4592,2.462,2.464,2.4679,2.4707,2.4741,2.4762,2.4786,2.479,2.4791,2.4782,2.4771,2.4779,2.481,2.479,2.4791,2.4791,2.4791,2.4791,2.4318,2.4331,2.4372,2.4402,2.443,2.4458,2.4474,2.4507,2.4532,2.4569,2.4592,2.462,2.4655,2.4703,2.4724,2.4746,2.4755,2.4756,2.4757,2.4756,2.4754,2.4767,2.4752,2.4752,2.4752,2.4752,2.4752,0,2.4283,2.4313,2.4341,2.4384,2.4408,2.4432,2.4468,2.4486,2.4511,2.4543,2.457,2.4603,2.4632,2.467,2.4702,2.4712,2.4724,2.4719,2.4718,2.4724,2.4743,2.474,2.4709,2.4709,2.4709,2.4709,2.4709,2.4709,2.4268,2.4292,2.4318,2.4356,2.4386,2.4416,2.4435,2.4461,2.4488,2.4526,2.4551,2.4577,2.4612,2.4647,2.4675,2.4685,2.4695,2.4687,2.4701,2.4718,2.4722,2.4725,2.4723,2.4689,2.4689,2.468,2.468,2.468]}]]